| time (UTC) | temp F | wind direction | speed MPH | gust MPH | rain 1hr in | rain 24hr in | rain mn in | humidity % | barometer mb |
| 20260903230032 | 79 | 61 | 0.0 | 2.0 | 0.00 | 0.66 | 0.12 | 81 | 1011.1 |
| 20260903224536 | 79 | 61 | 0.0 | 2.0 | 0.00 | 0.66 | 0.12 | 80 | 1010.9 |
| 20260903223031 | 80 | 61 | 0.0 | 1.0 | 0.00 | 0.66 | 0.12 | 79 | 1010.8 |
| 20260903221544 | 81 | 61 | 0.0 | 2.0 | 0.00 | 0.66 | 0.12 | 76 | 1010.7 |
| 20260903220030 | 81 | 61 | 1.0 | 2.0 | 0.00 | 0.66 | 0.12 | 74 | 1010.4 |
| 20260903214527 | 82 | 61 | 1.0 | 2.0 | 0.00 | 0.66 | 0.12 | 74 | 1010.7 |
| 20260903213028 | 82 | 61 | 0.0 | 3.0 | 0.00 | 0.66 | 0.12 | 72 | 1010.7 |
| 20260903211526 | 82 | 49 | 0.0 | 2.0 | 0.00 | 0.66 | 0.12 | 70 | 1010.7 |
| 20260903210025 | 83 | 234 | 1.0 | 3.0 | 0.00 | 0.66 | 0.12 | 68 | 1010.7 |
| 20260903204527 | 83 | 10 | 0.0 | 4.0 | 0.00 | 0.66 | 0.12 | 70 | 1011.0 |
| 20260903203033 | 83 | 317 | 2.0 | 6.0 | 0.00 | 0.66 | 0.12 | 67 | 1011.0 |
| 20260903201521 | 82 | 186 | 2.0 | 5.0 | 0.00 | 0.66 | 0.12 | 71 | 1011.3 |
| 20260903200035 | 83 | 351 | 1.0 | 9.0 | 0.00 | 0.66 | 0.12 | 67 | 1011.4 |
| 20260903194534 | 84 | 241 | 1.0 | 5.0 | 0.00 | 0.66 | 0.12 | 69 | 1011.2 |
| 20260903193026 | 84 | 228 | 1.0 | 4.0 | 0.00 | 0.66 | 0.12 | 68 | 1011.2 |
| 20260903191515 | 83 | 65 | 1.0 | 3.0 | 0.00 | 0.66 | 0.12 | 70 | 1011.6 |
| 20260903190114 | 81 | 11 | 1.0 | 6.0 | 0.00 | 0.66 | 0.12 | 72 | 1011.7 |
| 20260903184511 | 81 | 59 | 0.0 | 4.0 | 0.00 | 0.66 | 0.12 | 72 | 1012.0 |
| 20260903183010 | 81 | 29 | 1.0 | 3.0 | 0.00 | 0.66 | 0.12 | 71 | 1012.0 |
| 20260903181508 | 81 | 301 | 1.0 | 3.0 | 0.00 | 0.66 | 0.12 | 72 | 1012.1 |
| 20260903180013 | 81 | 302 | 0.0 | 3.0 | 0.00 | 0.66 | 0.12 | 73 | 1012.2 |
| 20260903174506 | 81 | 302 | 0.0 | 5.0 | 0.00 | 0.66 | 0.12 | 72 | 1012.3 |
| 20260903173005 | 81 | 312 | 0.0 | 2.0 | 0.00 | 0.66 | 0.12 | 71 | 1012.4 |
| 20260903171504 | 81 | 18 | 1.0 | 5.0 | 0.00 | 0.66 | 0.12 | 72 | 1012.4 |
| 20260903170100 | 80 | 28 | 1.0 | 3.0 | 0.00 | 0.66 | 0.12 | 73 | 1012.5 |
| 20260903164603 | 78 | 28 | 0.0 | 2.0 | 0.00 | 0.66 | 0.12 | 78 | 1012.7 |
| 20260903163055 | 78 | 29 | 0.0 | 4.0 | 0.00 | 0.66 | 0.12 | 78 | 1012.9 |
| 20260903161553 | 77 | 24 | 0.0 | 3.0 | 0.00 | 0.66 | 0.12 | 79 | 1013.0 |
| 20260903160054 | 77 | 235 | 0.0 | 4.0 | 0.00 | 0.66 | 0.12 | 79 | 1013.1 |
| 20260903154549 | 77 | 217 | 0.0 | 11.0 | 0.00 | 0.70 | 0.12 | 82 | 1013.3 |
| 20260903153048 | 75 | 66 | 0.0 | 3.0 | 0.00 | 0.70 | 0.12 | 87 | 1013.4 |
| 20260903151540 | 74 | 221 | 0.0 | 4.0 | 0.00 | 0.70 | 0.12 | 92 | 1013.5 |
| 20260903150038 | 72 | 220 | 0.0 | 2.0 | 0.00 | 0.70 | 0.12 | 94 | 1013.3 |
| 20260903144536 | 70 | 220 | 1.0 | 3.0 | 0.00 | 0.96 | 0.12 | 94 | 1013.4 |
| 20260903143034 | 70 | 220 | 1.0 | 2.0 | 0.00 | 0.96 | 0.12 | 94 | 1013.5 |
| 20260903141531 | 69 | 220 | 0.0 | 2.0 | 0.00 | 0.96 | 0.12 | 94 | 1013.6 |
| 20260903140031 | 69 | 220 | 1.0 | 3.0 | 0.00 | 0.96 | 0.12 | 94 | 1013.5 |
| 20260903134530 | 69 | 220 | 1.0 | 5.0 | 0.00 | 0.96 | 0.12 | 94 | 1013.5 |
| 20260903133030 | 70 | 198 | 0.0 | 4.0 | 0.00 | 0.96 | 0.12 | 95 | 1013.4 |
| 20260903131530 | 70 | 158 | 0.0 | 2.0 | 0.00 | 0.96 | 0.12 | 95 | 1013.2 |
| 20260903130030 | 69 | 158 | 0.0 | 2.0 | 0.00 | 0.96 | 0.12 | 95 | 1013.4 |
| 20260903124525 | 69 | 158 | 1.0 | 3.0 | 0.00 | 0.96 | 0.12 | 95 | 1013.5 |
| 20260903123022 | 68 | 158 | 0.0 | 2.0 | 0.00 | 0.96 | 0.12 | 95 | 1013.6 |
| 20260903121524 | 67 | 158 | 0.0 | 2.0 | 0.00 | 0.96 | 0.12 | 95 | 1013.4 |
| 20260903120021 | 67 | 158 | 0.0 | 1.0 | 0.00 | 0.96 | 0.12 | 95 | 1013.2 |
| 20260903114520 | 65 | 158 | 0.0 | 2.0 | 0.00 | 0.96 | 0.12 | 95 | 1013.1 |
| 20260903113027 | 65 | 158 | 0.0 | 1.0 | 0.00 | 0.96 | 0.12 | 94 | 1013.3 |
| 20260903111519 | 65 | 158 | 0.0 | 1.0 | 0.00 | 0.96 | 0.12 | 94 | 1012.9 |
| 20260903110042 | 65 | 158 | 1.0 | 2.0 | 0.00 | 0.96 | 0.12 | 94 | 1012.7 |
| 20260903104519 | 65 | 159 | 0.0 | 2.0 | 0.00 | 0.96 | 0.12 | 94 | 1012.7 |
| 20260903103018 | 65 | 159 | 1.0 | 2.0 | 0.00 | 0.96 | 0.12 | 94 | 1012.7 |
| 20260903101515 | 65 | 159 | 1.0 | 3.0 | 0.00 | 0.96 | 0.12 | 94 | 1012.8 |
| 20260903100016 | 65 | 157 | 0.0 | 1.0 | 0.00 | 0.96 | 0.12 | 94 | 1013.0 |
| 20260903094533 | 65 | 157 | 0.0 | 2.0 | 0.00 | 0.96 | 0.12 | 94 | 1013.1 |
| 20260903093013 | 65 | 157 | 0.0 | 0.0 | 0.00 | 0.96 | 0.12 | 94 | 1013.2 |
| 20260903091513 | 65 | 157 | 0.0 | 1.0 | 0.00 | 0.96 | 0.12 | 94 | 1013.1 |
| 20260903090012 | 65 | 157 | 0.0 | 2.0 | 0.00 | 0.96 | 0.12 | 94 | 1013.1 |
| 20260903084513 | 65 | 157 | 1.0 | 3.0 | 0.00 | 0.96 | 0.12 | 94 | 1013.2 |
| 20260903083013 | 65 | 189 | 0.0 | 2.0 | 0.00 | 0.96 | 0.12 | 94 | 1012.6 |
| 20260903081510 | 65 | 189 | 0.0 | 2.0 | 0.00 | 0.96 | 0.12 | 94 | 1013.1 |
| 20260903080010 | 65 | 189 | 0.0 | 3.0 | 0.00 | 0.96 | 0.12 | 94 | 1013.2 |
| 20260903074509 | 65 | 189 | 0.0 | 2.0 | 0.00 | 0.96 | 0.12 | 94 | 1013.3 |
| 20260903073011 | 65 | 189 | 0.0 | 3.0 | 0.00 | 0.96 | 0.12 | 94 | 1013.4 |
| 20260903071507 | 66 | 189 | 1.0 | 2.0 | 0.01 | 0.96 | 0.12 | 94 | 1013.0 |
| 20260903070006 | 66 | 189 | 0.0 | 3.0 | 0.01 | 0.96 | 0.12 | 94 | 1012.8 |
| 20260903064507 | 66 | 160 | 2.0 | 7.0 | 0.01 | 0.96 | 0.12 | 93 | 1013.5 |
| 20260903063006 | 66 | 345 | 3.0 | 5.0 | 0.01 | 0.96 | 0.12 | 93 | 1013.1 |
| 20260903061504 | 66 | 320 | 2.0 | 4.0 | 0.00 | 0.95 | 0.11 | 93 | 1013.1 |
| 20260903060003 | 66 | 215 | 0.0 | 2.0 | 0.00 | 0.95 | 0.11 | 93 | 1013.6 |
| 20260903054508 | 66 | 215 | 0.0 | 2.0 | 0.00 | 0.95 | 0.11 | 93 | 1013.5 |
| 20260903053113 | 66 | 216 | 1.0 | 3.0 | 0.02 | 0.95 | 0.11 | 93 | 1013.4 |
| 20260903051601 | 66 | 178 | 2.0 | 4.0 | 0.05 | 0.95 | 0.11 | 93 | 1013.7 |
| 20260903044604 | 66 | 205 | 5.0 | 11.0 | 0.16 | 0.95 | 0.11 | 93 | 1013.6 |
| 20260903043054 | 67 | 161 | 2.0 | 11.0 | 0.16 | 0.93 | 0.09 | 92 | 1014.4 |
| 20260903041550 | 67 | 188 | 3.0 | 6.0 | 0.16 | 0.90 | 0.06 | 92 | 1015.4 |
| 20260903040046 | 68 | 317 | 1.0 | 4.0 | 0.14 | 0.84 | 0.00 | 93 | 1016.3 |
| 20260903034545 | 68 | 225 | 0.0 | 2.0 | 0.14 | 0.79 | 0.79 | 92 | 1015.1 |
| 20260903033047 | 68 | 224 | 2.0 | 8.0 | 0.17 | 0.77 | 0.77 | 92 | 1013.9 |
| 20260903031544 | 68 | 208 | 5.0 | 10.0 | 0.19 | 0.74 | 0.74 | 92 | 1014.3 |
| 20260903030145 | 69 | 198 | 5.0 | 8.0 | 0.30 | 0.70 | 0.70 | 92 | 1014.3 |
| 20260903024546 | 69 | 217 | 7.0 | 11.0 | 0.32 | 0.65 | 0.65 | 92 | 1015.4 |
| 20260903023043 | 70 | 203 | 3.0 | 11.0 | 0.28 | 0.60 | 0.60 | 92 | 1016.3 |
| 20260903021553 | 70 | 219 | 5.0 | 12.0 | 0.24 | 0.55 | 0.55 | 92 | 1015.9 |
| 20260903020041 | 70 | 283 | 4.0 | 8.0 | 0.09 | 0.39 | 0.39 | 91 | 1016.9 |
| 20260903014544 | 70 | 202 | 3.0 | 10.0 | 0.03 | 0.33 | 0.33 | 90 | 1014.5 |
| 20260903013041 | 71 | 213 | 1.0 | 5.0 | 0.02 | 0.32 | 0.32 | 90 | 1014.7 |
| 20260903011543 | 71 | 19 | 2.0 | 3.0 | 0.01 | 0.31 | 0.31 | 90 | 1015.1 |
| 20260903010039 | 71 | 19 | 1.0 | 2.0 | 0.00 | 0.30 | 0.30 | 89 | 1014.5 |
| 20260903004550 | 71 | 19 | 1.0 | 3.0 | 0.00 | 0.30 | 0.30 | 89 | 1014.0 |
| 20260903003038 | 71 | 137 | 2.0 | 8.0 | 0.00 | 0.30 | 0.30 | 88 | 1013.6 |
| 20260903001537 | 71 | 222 | 2.0 | 5.0 | 0.00 | 0.30 | 0.30 | 88 | 1014.0 |
| 20260903000036 | 72 | 231 | 3.0 | 7.0 | 0.00 | 0.30 | 0.30 | 88 | 1014.0 |
| 20260902234536 | 72 | 194 | 1.0 | 3.0 | 0.00 | 0.30 | 0.30 | 88 | 1014.4 |
| 20260902233038 | 72 | 196 | 0.0 | 4.0 | 0.00 | 0.30 | 0.30 | 87 | 1014.1 |
| 20260902231545 | 72 | 156 | 0.0 | 3.0 | 0.00 | 0.30 | 0.30 | 87 | 1014.2 |